Location: Newark
(36.9167°N, 76.2000°W)
Time: 10:35:54
(UTC+00:00)

X-37B - Visible Passes

Search period start: 30 September 2020 00:00
Search period end: 10 October 2020 00:00
Orbit: 386 x 387 km, 45.0° (Epoch: 18 September)

Date Brightness Start Highest point End Pass type
(mag) Time Alt. Az. Time Alt. Az. Time Alt. Az.
01 Oct 1.7 00:03:58 10° SSW 00:06:26 28° SSE 00:06:26 28° SSE visible
02 Oct 2.4 00:41:31 10° WSW 00:43:20 31° WSW 00:43:20 31° WSW visible
02 Oct 0.6 23:43:00 10° SW 23:46:07 60° SSE 23:47:47 24° ENE visible
04 Oct 1.6 00:21:10 10° W 00:24:11 39° NNW 00:24:23 39° N visible
04 Oct 0.8 23:22:23 10° WSW 23:25:33 69° NNW 23:28:36 11° ENE visible
05 Oct 3.7 01:00:01 10° WNW 01:00:52 15° NW 01:00:52 15° NW visible
06 Oct 2.3 00:01:00 10° WNW 00:03:46 27° NNW 00:05:00 21° NNE visible
06 Oct 1.7 23:02:03 10° W 23:05:04 39° NNW 23:08:05 10° NE visible
07 Oct 3.2 00:39:53 10° NW 00:41:19 17° NNW 00:41:19 17° NNW visible
07 Oct 2.6 23:40:54 10° WNW 23:43:25 21° N 23:45:20 13° NE visible
09 Oct 2.8 00:19:36 10° NW 00:21:35 18° N 00:21:35 18° N visible
09 Oct 2.7 23:20:45 10° NW 23:23:06 19° N 23:25:27 10° NE visible
